Weather History for Denver, CO

Change the Weather History Date:

Saturday, September 27, 2014

  Actual Average Record
Temperature  
Mean Temperature 70 °F 59 °F  
Max Temperature 87 °F 74 °F 92 °F (1953)
Min Temperature 52 °F 44 °F 21 °F (1908)
Degree Days  
Heating Degree Days 0 7  
Month to date heating degree days 70 99  
Since 1 July heating degree days 77 115  
Cooling Degree Days 5 1  
Month to date cooling degree days 88 74  
Year to date cooling degree days 701 762  
Growing Degree Days 20 (Base 50)    
Moisture  
Dew Point 36 °F    
Average Humidity 35    
Maximum Humidity 59    
Minimum Humidity 11    
Precipitation  
Precipitation 0.00 in 0.03 in 0.81 in (1936)
Month to date precipitation 0.77 0.86  
Year to date precipitation 15.88 12.22  
Snow  
Snow 0.00 in - - ()
Month to date snowfall T  
Since 1 July snowfall T  
Since 1 September snowfall T  
Snow Depth 0.00 in    
Sea Level Pressure  
Sea Level Pressure 29.76 in    
Wind  
Wind Speed 9 mph (South)    
Max Wind Speed 16 mph    
Max Gust Speed 21 mph    
Visibility 10 miles    
Events      
T = Trace of Precipitation, MM = Missing Value Source: NWS Daily Summary

Daily Weather History Graph

Daily Weather History Graph

Search for Another Location

Airport:

Trip Planner

Search our weather history database for the weather conditions in past years. The results will help you decide how hot, cold, wet, or windy it might be!

Date:

Astronomy

Sep. 27, 2014 Rise Set
Actual Time 6:51 AM MDT 6:47 PM MDT
Civil Twilight 6:24 AM MDT 7:14 PM MDT
Nautical Twilight 5:52 AM MDT 7:45 PM MDT
Astronomical Twilight 5:20 AM MDT 8:17 PM MDT
Moon 10:08 AM MDT (9/27) 8:49 PM MDT (9/27)
Length of Visible Light 12h 50m
Length of Day
11h 56m
Waxing Crescent, 12% of the Moon is Illuminated
Sep 27
Waxing Crescent
Oct 1
First Quarter
Oct 8
Full
Oct 15
Last Quarter
Oct 23
New

Hourly Weather History & Observations

Time (MDT) Temp. Dew Point Humidity Pressure Visibility Wind Dir Wind Speed Gust Speed Precip Events Conditions
12:53 AM 68.0 °F 30.9 °F 25% 29.75 in 10.0 mi SSW 12.7 mph - N/A   Clear
1:53 AM 66.9 °F 33.1 °F 28% 29.75 in 10.0 mi SW 13.8 mph - N/A   Clear
2:53 AM 63.0 °F 34.0 °F 34% 29.74 in 10.0 mi SW 15.0 mph - N/A   Clear
3:53 AM 59.0 °F 35.1 °F 41% 29.74 in 10.0 mi WSW 6.9 mph - N/A   Clear
4:53 AM 59.0 °F 37.0 °F 44% 29.74 in 10.0 mi SW 6.9 mph - N/A   Clear
5:53 AM 57.0 °F 37.0 °F 47% 29.76 in 10.0 mi WSW 8.1 mph - N/A   Clear
6:53 AM 57.9 °F 37.9 °F 47% 29.79 in 10.0 mi SW 9.2 mph - N/A   Clear
7:53 AM 62.6 °F 39.2 °F 42% 30.00 in 10.0 mi SW 8.1 mph - N/A   Clear
8:53 AM 69.1 °F 41.0 °F 36% 29.81 in 10.0 mi WSW 8.1 mph - N/A   Clear
9:53 AM 73.0 °F 43.0 °F 34% 29.81 in 10.0 mi West 5.8 mph - N/A   Clear
10:53 AM 78.1 °F 43.0 °F 29% 29.77 in 10.0 mi Variable 3.5 mph - N/A   Partly Cloudy
11:53 AM 80.1 °F 41.0 °F 25% 29.75 in 10.0 mi ESE 4.6 mph - N/A   Partly Cloudy
12:53 PM 84.0 °F 37.9 °F 19% 29.72 in 10.0 mi Variable 5.8 mph - N/A   Partly Cloudy
1:53 PM 86.0 °F 36.0 °F 17% 29.70 in 10.0 mi NE 9.2 mph - N/A   Partly Cloudy
2:53 PM 86.0 °F 32.0 °F 14% 29.70 in 10.0 mi East 9.2 mph - N/A   Partly Cloudy
3:53 PM 86.0 °F 26.1 °F 11% 29.70 in 10.0 mi Variable 5.8 mph - N/A   Partly Cloudy
4:53 PM 84.9 °F 28.0 °F 13% 29.69 in 10.0 mi ENE 10.4 mph - N/A   Partly Cloudy
5:53 PM 81.0 °F 30.9 °F 16% 29.70 in 10.0 mi East 12.7 mph - N/A   Partly Cloudy
6:53 PM 73.0 °F 36.0 °F 26% 29.74 in 10.0 mi ESE 11.5 mph - N/A   Partly Cloudy
7:53 PM 64.9 °F 39.0 °F 39% 29.76 in 10.0 mi ESE 9.2 mph - N/A   Partly Cloudy
8:53 PM 60.1 °F 39.0 °F 46% 29.77 in 10.0 mi SSE 8.1 mph - N/A   Partly Cloudy
9:53 PM 59.0 °F 39.0 °F 48% 29.78 in 10.0 mi SSE 8.1 mph - N/A   Partly Cloudy
10:53 PM 55.9 °F 37.0 °F 49% 29.78 in 10.0 mi SSE 11.5 mph - N/A   Partly Cloudy
11:53 PM 53.1 °F 39.0 °F 59% 29.78 in 10.0 mi SSE 9.2 mph - N/A   Scattered Clouds